This is the latest recevied weather packets stored in our database for station/object AF5AA. If no packets are shown the sender has not sent any weather packets the latest 10 day(s).
| Time | Temp. | Humidity | Pressure | Rain* | Wind** | Luminosity | Snow |
|---|---|---|---|---|---|---|---|
| 1777505012 | 18.89° C | 99% | 1011 hPa | 3.05 mm | - | 32 W/m² | - |
| 1777504708 | 18.89° C | 99% | 1010.6 hPa | 3.05 mm | - | 38 W/m² | - |
| 1777504406 | 18.89° C | 99% | 1010.7 hPa | 3.05 mm | - | 54 W/m² | - |
| 1777504101 | 18.89° C | 99% | 1010.3 hPa | 3.05 mm | - | 92 W/m² | - |
| 1777503796 | 18.33° C | 99% | 1010.3 hPa | 4.83 mm | - | 66 W/m² | - |
| 1777503493 | 18.33° C | 99% | 1010.3 hPa | 4.32 mm | - | 40 W/m² | - |
| 1777503189 | 18.33° C | 99% | 1010.4 hPa | 4.83 mm | - | 26 W/m² | - |
| 1777502886 | 18.33° C | 99% | 1010.9 hPa | 3.56 mm | - | 13 W/m² | - |
| 1777502584 | 18.33° C | 99% | 1010.5 hPa | 3.05 mm | - | 4 W/m² | - |
| 1777502281 | 18.33° C | 99% | 1009 hPa | 3.05 mm | - | 7 W/m² | - |
| 1777501978 | 18.33° C | 99% | 1009.8 hPa | 4.83 mm | - | 8 W/m² | - |
| 1777501675 | 18.33° C | 99% | 1009.6 hPa | 4.32 mm | - | 12 W/m² | - |
| 1777501372 | 18.33° C | 99% | 1009.7 hPa | 4.32 mm | - | 10 W/m² | - |
| 1777501069 | 18.33° C | 99% | 1009.5 hPa | 7.87 mm | - | 11 W/m² | - |
| 1777500767 | 18.33° C | 99% | 1010.1 hPa | 9.65 mm | - | 14 W/m² | - |
| 1777500464 | 18.33° C | 99% | 1010.3 hPa | 8.89 mm | - | 19 W/m² | - |
| 1777500160 | 18.33° C | 99% | 1010.6 hPa | 8.89 mm | - | 36 W/m² | - |
| 1777499858 | 18.33° C | 99% | 1011.3 hPa | 4.83 mm | - | 22 W/m² | - |
| 1777499553 | 18.33° C | 99% | 1011.1 hPa | 1.27 mm | - | 12 W/m² | - |
| 1777499251 | 18.33° C | 99% | 1011.5 hPa | 1.27 mm | - | 9 W/m² | - |
| 1777498948 | 18.33° C | 99% | 1011.3 hPa | 1.78 mm | - | 6 W/m² | - |
| 1777498645 | 18.89° C | 98% | 1012.1 hPa | 1.78 mm | - | 4 W/m² | - |
| 1777498340 | 18.89° C | 98% | 1011.6 hPa | 0 mm | - | 3 W/m² | - |
| 1777498039 | 18.89° C | 97% | 1012 hPa | 0 mm | - | 3 W/m² | - |
| 1777497735 | 18.89° C | 96% | 1012.1 hPa | 0 mm | - | 2 W/m² | - |
* Rain latest hour (hover to see other rain measurements)
** Current wind speed in m/s (hover to see current wind gust speed)